Regional Weather Roundup
Issued by NWS

Home | Current Version | Previous Version | Graphics & Text | Print | Product List | Glossary Off
Versions: 1 2 3 4 5 6 7 8 9 10 11 12 13 14 15 16 17 18 19 20 21 22 23 24 25 26 27 28 29 30 31 32 33 34 35 36 37 38 39 40 41 42 43 44 45 46 47 48 49 50

000
ASUS43 KLOT 280208
RWRIL

ILLINOIS REGIONAL WEATHER ROUNDUP
NATIONAL WEATHER SERVICE CHICAGO/ROMEOVILLE IL
900 PM CDT MON MAR 27 2017

NOTE: "FAIR" INDICATES FEW OR NO CLOUDS BELOW 12,000 FEET WITH NO
SIGNIFICANT WEATHER AND/OR OBSTRUCTIONS TO VISIBILITY.

* THESE STATIONS ARE NOT UNDER NWS QUALITY CONTROL. THEY ALSO MAY NOT
  REPORT WEATHER SUCH AS PRECIPITATION OR FOG.

ILZ001-002-007-009-015-016-024-280300-
NORTHWEST ILLINOIS

CITY           SKY/WX    TMP DP  RH WIND       PRES   REMARKS
MOLINE         CLOUDY    51  45  79 N3        29.94S
STERLING*      CLOUDY    50  46  86 N3        29.96R
SAVANNA*       CLOUDY    49  45  87 CALM      29.96R
$$

ILZ003-004-008-010-011-017-018-280300-
NORTH CENTRAL ILLINOIS

CITY           SKY/WX    TMP DP  RH WIND       PRES   REMARKS
ROCKFORD       CLOUDY    50  44  80 NE7       29.97R
FREEPORT*      CLOUDY    47  44  88 NE5       29.96R
ROCHELLE*      CLOUDY    48  46  91 NE7       29.95R
DE KALB*       CLOUDY    46  43  90 NE8       29.96R
PERU*          CLOUDY    50  48  95 NE5       29.94R FOG
$$

ILZ005-006-012>014-019>023-280300-
NORTHEAST ILLINOIS

CITY           SKY/WX    TMP DP  RH WIND       PRES   REMARKS
CHICAGO-OHARE  CLOUDY    43  37  79 NE10      29.95R
CHICAGO-MIDWAY CLOUDY    43  39  86 NE8       29.96R
AURORA         CLOUDY    47  42  83 NE10      29.95R
LANSING*       CLOUDY    41  39  95 NE9       29.95S
JOLIET*        CLOUDY    46  44  90 NE10      29.95R FOG
WAUKEGAN       CLOUDY    38  37  97 NE6       29.97R WCI  33
DUPAGE AIRPORT CLOUDY    44  42  93 NE9       29.95R
KANKAKEE*      DRIZZLE   44  43  96 NE8       29.94R
WHEELING       CLOUDY    41  38  89 NE5       29.98R
MORRIS*        CLOUDY    48  45  89 NE6       29.93R FOG
ROMEOVILLE*    CLOUDY    44  43  96 NE8       29.95R
NORTHERLY ISL    N/A     39  38  96 NW8         N/A  WCI  33
$$

LMZ740>746-280300-
SOUTHERN LAKE MICHIGAN

STATION/POSITION SKY/WX   TEMP    WIND        PRES    VSBY  WAVE
                          AIR SEA DIR/SP/G                  HT/PER
                          (F)     (DEG/KT/KT) (MB)    (MI)  (FT/S)
HARRISON CRIB              39     360/ 11/ 12   N/A
BURNHAM HARBOR             39     350/  8/ 10   N/A
CALUMET HARBOR             39     350/  6/  9 1013.9R
BURNS HARBOR               39      30/  7/  9 1014.6R
MICHIGAN CITY              38      30/ 14/ 15   N/A
$$

ILZ025>027-034>036-040-047-049-050-058-095>099-280300-
WEST-CENTRAL ILLINOIS

CITY           SKY/WX    TMP DP  RH WIND       PRES   REMARKS
QUINCY         MOCLDY    50  48  93 N9        29.93R
GALESBURG*     CLOUDY    50  47  90 N7        29.94R
MACOMB*        CLOUDY    51  49  95 N7        29.96R
JACKSONVILLE*  CLOUDY    53  51  93 N7        29.92R
PITTSFIELD*    CLOUDY    54  52  92 N7        29.93R
$$

ILZ028>032-037-038-041>044-048-051>054-059>061-280300-
CENTRAL ILLINOIS

CITY           SKY/WX    TMP DP  RH WIND       PRES   REMARKS
PONTIAC        CLOUDY    52  52  99 NE7       29.93R FOG
BLOOMINGTON    CLOUDY    52  51  97 N9        29.92R
DECATUR        CLOUDY    54  52  93 N12       29.89R
PEORIA         CLOUDY    52  49  89 N6        29.93R
LACON*         CLOUDY    51  50  95 N3        29.93R FOG
LINCOLN*       LGT RAIN  54  53  97 N7        29.91R
SPRINGFIELD    CLOUDY    55  51  86 N9        29.92R
TAYLORVILLE    CLOUDY    54  52  94 N13       29.90R
$$

ILZ033-039-045-046-055>057-062-063-280300-
EAST-CENTRAL ILLINOIS

CITY           SKY/WX    TMP DP  RH WIND       PRES   REMARKS
CHAMPAIGN      LGT RAIN  55  52  89 N15       29.87R FOG
RANTOUL*       CLOUDY    56  54  92 N12       29.89R
MATTOON        LGT RAIN  54  54 100 N9        29.85R
PARIS*         DRIZZLE   55  54  97 N8        29.85R
$$

ILZ079-100>102-280300-
SOUTHWEST ILLINOIS

CITY           SKY/WX    TMP DP  RH WIND       PRES   REMARKS
ALTON          CLOUDY    55  52  88 NW6       29.91R
BELLEVILLE     CLOUDY    56  56 100 NW10      29.88R
CAHOKIA*       CLOUDY    57  52  83 NW6       29.90R
SPARTA*        CLOUDY    55  53  91 NW7       29.90R
$$

ILZ064>066-069>071-074>076-080>082-084>086-088>090-092>094-280300-
SOUTH-CENTRAL ILLINOIS

CITY           SKY/WX    TMP DP  RH WIND       PRES   REMARKS
CARBONDALE     CLOUDY    57  53  86 NW9       29.88R
CAIRO*         PTCLDY    56  56  99 CALM      29.86R
EFFINGHAM*     DRIZZLE   55  55 100 N6        29.86R
MARION         CLOUDY    57  55  94 NW3       29.89R
MT. VERNON     CLOUDY    57  53  86 W6        29.86R
CENTRALIA*     CLOUDY    56  55  97 NW8       29.86R FOG
SALEM*         CLOUDY    57  54  87 NW8       29.85R
METROPOLIS*    FOG       54  54  98 CALM      29.87R VSB 1
$$

ILZ067-068-072-073-078-083-087-091-280300-
SOUTHEAST ILLINOIS

CITY           SKY/WX    TMP DP  RH WIND       PRES   REMARKS
LAWRENCEVILLE  CLOUDY    58  57  97 CALM      29.82R
FLORA*         CLOUDY    58  54  87 W6        29.84R
FAIRFIELD*     PTCLDY    55  52  88 CALM      29.83R
HARRISBURG*    CLOUDY    57  54  88 NW10      29.87R
ROBINSON*      CLOUDY    57  56  97 N6        29.82R
CARMI*         CLOUDY    58  55  88 W12       29.84R
$$

ABBREVIATIONS USED IN REMARKS
   TC - TEMPERATURE IN CELSIUS
  WCI - WIND CHILL INDEX
   HX - HEAT INDEX
  VSB - VISIBILITY
$$





USA.gov is the U.S. government's official web portal to all federal, state and local government web resources and services.